Volver al catálogo

COSMOS 1375 DEB

ActivoLEO
NORAD 17799·DEBRIS·🇷🇺 Russia

Lanzado Jun 6, 1982 desde Plesetsk Cosmodrome

Loading…

Próximos Pases (próximas 24 horas)

TLE

ActualizadoSource: Space-Track

Época: Sep 14, 2026, 12:36 UTC

1 17799U 82055AR  26257.52569200  .00000430  00000-0  37238-3 0  9997
2 17799  65.8353  89.2230 0025303 333.3268  55.5673 13.96348674 72304

Sigue COSMOS 1375 DEB en tiempo real con AllMySat

Download on the App Store